Year,Month,Day,Hour,Minute,Value (Times are PST for temperature in C)
2009,07,25,00,00,16.10
2009,07,25,00,01,16.10
2009,07,25,00,02,16.10
2009,07,25,00,03,16.10
2009,07,25,00,04,16.20
2009,07,25,00,05,16.20
2009,07,25,00,06,16.30
2009,07,25,00,07,16.30
2009,07,25,00,08,16.30
2009,07,25,00,09,16.40
2009,07,25,00,10,16.40
2009,07,25,00,11,16.40
2009,07,25,00,12,16.40
2009,07,25,00,13,16.50
2009,07,25,00,14,16.60
2009,07,25,00,15,16.70
2009,07,25,00,16,16.70
2009,07,25,00,17,16.70
2009,07,25,00,18,16.80
2009,07,25,00,19,16.80
2009,07,25,00,20,16.90
2009,07,25,00,21,16.90
2009,07,25,00,22,16.90
2009,07,25,00,23,16.90
2009,07,25,00,24,16.90
2009,07,25,00,25,16.80
2009,07,25,00,26,16.80
2009,07,25,00,27,16.70
2009,07,25,00,28,16.70
2009,07,25,00,29,16.70
2009,07,25,00,30,16.70
2009,07,25,00,31,16.70
2009,07,25,00,32,16.70
2009,07,25,00,33,16.70
2009,07,25,00,34,16.70
2009,07,25,00,35,16.70
2009,07,25,00,36,16.70
2009,07,25,00,37,16.70
2009,07,25,00,38,16.70
2009,07,25,00,39,16.70
2009,07,25,00,40,16.70
2009,07,25,00,41,16.80
2009,07,25,00,42,16.80
2009,07,25,00,43,16.80
2009,07,25,00,44,16.80
2009,07,25,00,45,16.80
2009,07,25,00,46,16.80
2009,07,25,00,47,16.90
2009,07,25,00,48,17.00
2009,07,25,00,49,17.00
2009,07,25,00,50,17.10
2009,07,25,00,51,17.10
2009,07,25,00,52,17.20
2009,07,25,00,53,17.20
2009,07,25,00,54,17.20
2009,07,25,00,55,17.30
2009,07,25,00,56,17.30
2009,07,25,00,57,17.30
2009,07,25,00,58,17.30
2009,07,25,00,59,17.40
2009,07,25,01,00,17.40
2009,07,25,01,01,17.50
2009,07,25,01,02,17.50
2009,07,25,01,03,17.50
2009,07,25,01,04,17.60
2009,07,25,01,05,17.70
2009,07,25,01,06,17.80
2009,07,25,01,07,17.80
2009,07,25,01,08,17.80
2009,07,25,01,09,17.90
2009,07,25,01,10,17.90
2009,07,25,01,11,17.90
2009,07,25,01,12,17.90
2009,07,25,01,13,17.90
2009,07,25,01,14,17.90
2009,07,25,01,15,18.00
2009,07,25,01,16,18.10
2009,07,25,01,17,18.10
2009,07,25,01,18,18.00
2009,07,25,01,19,18.00
2009,07,25,01,20,18.10
2009,07,25,01,21,18.10
2009,07,25,01,22,18.10
2009,07,25,01,23,18.10
2009,07,25,01,24,18.20
2009,07,25,01,25,18.20
2009,07,25,01,26,18.20
2009,07,25,01,27,18.20
2009,07,25,01,28,18.20
2009,07,25,01,29,18.20
2009,07,25,01,30,18.20
2009,07,25,01,31,18.20
2009,07,25,01,32,18.20
2009,07,25,01,33,18.20
2009,07,25,01,34,18.20
2009,07,25,01,35,18.30
2009,07,25,01,36,18.30
2009,07,25,01,37,18.30
2009,07,25,01,38,18.20
2009,07,25,01,39,18.20
2009,07,25,01,40,18.20
2009,07,25,01,41,18.20
2009,07,25,01,42,18.20
2009,07,25,01,43,18.20
2009,07,25,01,44,18.20
2009,07,25,01,45,18.10
2009,07,25,01,46,18.00
2009,07,25,01,47,17.90
2009,07,25,01,48,17.90
2009,07,25,01,49,17.90
2009,07,25,01,50,17.90
2009,07,25,01,51,17.90
2009,07,25,01,52,17.80
2009,07,25,01,53,17.80
2009,07,25,01,54,17.80
2009,07,25,01,55,17.80
2009,07,25,01,56,17.80
2009,07,25,01,57,17.70
2009,07,25,01,58,17.70
2009,07,25,01,59,17.70
2009,07,25,02,00,17.70
2009,07,25,02,01,17.70
2009,07,25,02,02,17.70
2009,07,25,02,03,17.60
2009,07,25,02,04,17.40
2009,07,25,02,05,17.20
2009,07,25,02,06,17.10
2009,07,25,02,07,17.00
2009,07,25,02,08,16.90
2009,07,25,02,09,16.80
2009,07,25,02,10,16.80
2009,07,25,02,11,16.70
2009,07,25,02,12,16.70
2009,07,25,02,13,16.60
2009,07,25,02,14,16.60
2009,07,25,02,15,16.50
2009,07,25,02,16,16.40
2009,07,25,02,17,16.40
2009,07,25,02,18,16.30
2009,07,25,02,19,16.20
2009,07,25,02,20,16.10
2009,07,25,02,21,16.10
2009,07,25,02,22,16.10
2009,07,25,02,23,15.90
2009,07,25,02,24,15.90
2009,07,25,02,25,15.80
2009,07,25,02,26,15.80
2009,07,25,02,27,15.80
2009,07,25,02,28,15.80
2009,07,25,02,29,15.70
2009,07,25,02,30,15.70
2009,07,25,02,31,15.70
2009,07,25,02,32,15.60
2009,07,25,02,33,15.50
2009,07,25,02,34,15.50
2009,07,25,02,35,15.40
2009,07,25,02,36,15.40
2009,07,25,02,37,15.40
2009,07,25,02,38,15.30
2009,07,25,02,39,15.30
2009,07,25,02,40,15.30
2009,07,25,02,41,15.30
2009,07,25,02,42,15.30
2009,07,25,02,43,15.30
2009,07,25,02,44,15.20
2009,07,25,02,45,15.20
2009,07,25,02,46,15.10
2009,07,25,02,47,15.10
2009,07,25,02,48,15.10
2009,07,25,02,49,15.10
2009,07,25,02,50,15.00
2009,07,25,02,51,15.00
2009,07,25,02,52,14.90
2009,07,25,02,53,14.80
2009,07,25,02,54,14.80
2009,07,25,02,55,14.70
2009,07,25,02,56,14.60
2009,07,25,02,57,14.60
2009,07,25,02,58,14.50
2009,07,25,02,59,14.50
2009,07,25,03,00,14.50
2009,07,25,03,01,14.40
2009,07,25,03,02,14.40
2009,07,25,03,03,14.30
2009,07,25,03,04,14.30
2009,07,25,03,05,14.30
2009,07,25,03,06,14.30
2009,07,25,03,07,14.30
2009,07,25,03,08,14.30
2009,07,25,03,09,14.20
2009,07,25,03,10,14.20
2009,07,25,03,11,14.20
2009,07,25,03,12,14.20
2009,07,25,03,13,14.20
2009,07,25,03,14,14.20
2009,07,25,03,15,14.20
2009,07,25,03,16,14.20
2009,07,25,03,17,14.20
2009,07,25,03,18,14.20
2009,07,25,03,19,14.20
2009,07,25,03,20,14.20
2009,07,25,03,21,14.20
2009,07,25,03,22,14.20
2009,07,25,03,23,14.20
2009,07,25,03,24,14.20
2009,07,25,03,25,14.20
2009,07,25,03,26,14.20
2009,07,25,03,27,14.20
2009,07,25,03,28,14.20
2009,07,25,03,29,14.20
2009,07,25,03,30,14.20
2009,07,25,03,31,14.20
2009,07,25,03,32,14.20
2009,07,25,03,33,14.30
2009,07,25,03,34,14.30
2009,07,25,03,35,14.30
2009,07,25,03,36,14.30
2009,07,25,03,37,14.30
2009,07,25,03,38,14.40
2009,07,25,03,39,14.40
2009,07,25,03,40,14.40
2009,07,25,03,41,14.40
2009,07,25,03,42,14.40
2009,07,25,03,43,14.40
2009,07,25,03,44,14.40
2009,07,25,03,45,14.40
2009,07,25,03,46,14.40
2009,07,25,03,47,14.30
2009,07,25,03,48,14.30
2009,07,25,03,49,14.30
2009,07,25,03,50,14.30
2009,07,25,03,51,14.30
2009,07,25,03,52,14.30
2009,07,25,03,53,14.30
2009,07,25,03,54,14.40
2009,07,25,03,55,14.40
2009,07,25,03,56,14.40
2009,07,25,03,57,14.40
2009,07,25,03,58,14.40
2009,07,25,03,59,14.40
2009,07,25,04,00,14.40
2009,07,25,04,01,14.40
2009,07,25,04,02,14.40
2009,07,25,04,03,14.50
2009,07,25,04,04,14.50
2009,07,25,04,05,14.50
2009,07,25,04,06,14.50
2009,07,25,04,07,14.50
2009,07,25,04,08,14.50
2009,07,25,04,09,14.40
2009,07,25,04,10,14.40
2009,07,25,04,11,14.40
2009,07,25,04,12,14.40
2009,07,25,04,13,14.50
2009,07,25,04,14,14.50
2009,07,25,04,15,14.50
2009,07,25,04,16,14.50
2009,07,25,04,17,14.50
2009,07,25,04,18,14.40
2009,07,25,04,19,14.40
2009,07,25,04,20,14.40
2009,07,25,04,21,14.40
2009,07,25,04,22,14.40
2009,07,25,04,23,14.40
2009,07,25,04,24,14.40
2009,07,25,04,25,14.40
2009,07,25,04,26,14.50
2009,07,25,04,27,14.50
2009,07,25,04,28,14.50
2009,07,25,04,29,14.50
2009,07,25,04,30,14.50
2009,07,25,04,31,14.40
2009,07,25,04,32,14.40
2009,07,25,04,33,14.40
2009,07,25,04,34,14.30
2009,07,25,04,35,14.30
2009,07,25,04,36,14.30
2009,07,25,04,37,14.30
2009,07,25,04,38,14.30
2009,07,25,04,39,14.40
2009,07,25,04,40,14.50
2009,07,25,04,41,14.60
2009,07,25,04,42,14.60
2009,07,25,04,43,14.70
2009,07,25,04,44,14.70
2009,07,25,04,45,14.70
2009,07,25,04,46,14.70
2009,07,25,04,47,14.60
2009,07,25,04,48,14.60
2009,07,25,04,49,14.60
2009,07,25,04,50,14.60
2009,07,25,04,51,14.60
2009,07,25,04,52,14.60
2009,07,25,04,53,14.50
2009,07,25,04,54,14.50
2009,07,25,04,55,14.50
2009,07,25,04,56,14.50
2009,07,25,04,57,14.40
2009,07,25,04,58,14.40
2009,07,25,04,59,14.40
2009,07,25,05,00,14.30
2009,07,25,05,01,14.30
2009,07,25,05,02,14.30
2009,07,25,05,03,14.30
2009,07,25,05,04,14.30
2009,07,25,05,05,14.30
2009,07,25,05,06,14.20
2009,07,25,05,07,14.20
2009,07,25,05,08,14.20
2009,07,25,05,09,14.20
2009,07,25,05,10,14.20
2009,07,25,05,11,14.20
2009,07,25,05,12,14.20
2009,07,25,05,13,14.20
2009,07,25,05,14,14.20
2009,07,25,05,15,14.20
2009,07,25,05,16,14.30
2009,07,25,05,17,14.30
2009,07,25,05,18,14.30
2009,07,25,05,19,14.20
2009,07,25,05,20,14.20
2009,07,25,05,21,14.20
2009,07,25,05,22,14.20
2009,07,25,05,23,14.20
2009,07,25,05,24,14.20
2009,07,25,05,25,14.20
2009,07,25,05,26,14.20
2009,07,25,05,27,14.20
2009,07,25,05,28,14.20
2009,07,25,05,29,14.20
2009,07,25,05,30,14.20
2009,07,25,05,31,14.20
2009,07,25,05,32,14.20
2009,07,25,05,33,14.20
2009,07,25,05,34,14.20
2009,07,25,05,35,14.20
2009,07,25,05,36,14.20
2009,07,25,05,37,14.20
2009,07,25,05,38,14.20
2009,07,25,05,39,14.20
2009,07,25,05,40,14.20
2009,07,25,05,41,14.20
2009,07,25,05,42,14.20
2009,07,25,05,43,14.20
2009,07,25,05,44,14.20
2009,07,25,05,45,14.20
2009,07,25,05,46,14.30
2009,07,25,05,47,14.30
2009,07,25,05,48,14.30
2009,07,25,05,49,14.40
2009,07,25,05,50,14.40
2009,07,25,05,51,14.40
2009,07,25,05,52,14.40
2009,07,25,05,53,14.40
2009,07,25,05,54,14.50
2009,07,25,05,55,14.50
2009,07,25,05,56,14.50
2009,07,25,05,57,14.50
2009,07,25,05,58,14.60
2009,07,25,05,59,14.60
2009,07,25,06,00,14.70
2009,07,25,06,01,14.70
2009,07,25,06,02,14.80
2009,07,25,06,03,14.80
2009,07,25,06,04,14.90
2009,07,25,06,05,14.90
2009,07,25,06,06,15.00
2009,07,25,06,07,15.00
2009,07,25,06,08,15.00
2009,07,25,06,09,15.00
2009,07,25,06,10,15.10
2009,07,25,06,11,15.10
2009,07,25,06,12,15.10
2009,07,25,06,13,15.20
2009,07,25,06,14,15.20
2009,07,25,06,15,15.30
2009,07,25,06,16,15.30
2009,07,25,06,17,15.30
2009,07,25,06,18,15.30
2009,07,25,06,19,15.40
2009,07,25,06,20,15.40
2009,07,25,06,21,15.50
2009,07,25,06,22,15.50
2009,07,25,06,23,15.60
2009,07,25,06,24,15.60
2009,07,25,06,25,15.60
2009,07,25,06,26,15.70
2009,07,25,06,27,15.70
2009,07,25,06,28,15.70
2009,07,25,06,29,15.70
2009,07,25,06,30,15.70
2009,07,25,06,31,15.70
2009,07,25,06,32,15.70
2009,07,25,06,33,15.70
2009,07,25,06,34,15.70
2009,07,25,06,35,15.70
2009,07,25,06,36,15.70
2009,07,25,06,37,15.70
2009,07,25,06,38,15.70
2009,07,25,06,39,15.70
2009,07,25,06,40,15.70
2009,07,25,06,41,15.70
2009,07,25,06,42,15.70
2009,07,25,06,43,15.80
2009,07,25,06,44,15.80
2009,07,25,06,45,15.80
2009,07,25,06,46,15.80
2009,07,25,06,47,15.80
2009,07,25,06,48,15.80
2009,07,25,06,49,15.80
2009,07,25,06,50,15.90
2009,07,25,06,51,16.00
2009,07,25,06,52,16.10
2009,07,25,06,53,16.10
2009,07,25,06,54,16.10
2009,07,25,06,55,16.10
2009,07,25,06,56,16.10
2009,07,25,06,57,16.10
2009,07,25,06,58,16.10
2009,07,25,06,59,16.10
2009,07,25,07,00,16.10
2009,07,25,07,01,16.20
2009,07,25,07,02,16.20
2009,07,25,07,03,16.20
2009,07,25,07,04,16.20
2009,07,25,07,05,16.30
2009,07,25,07,06,16.30
2009,07,25,07,07,16.30
2009,07,25,07,08,16.40
2009,07,25,07,09,16.40
2009,07,25,07,10,16.40
2009,07,25,07,11,16.50
2009,07,25,07,12,16.60
2009,07,25,07,13,16.60
2009,07,25,07,14,16.70
2009,07,25,07,15,16.70
2009,07,25,07,16,16.70
2009,07,25,07,17,16.80
2009,07,25,07,18,16.90
2009,07,25,07,19,16.90
2009,07,25,07,20,17.00
2009,07,25,07,21,17.10
2009,07,25,07,22,17.20
2009,07,25,07,23,17.20
2009,07,25,07,24,17.30
2009,07,25,07,25,17.30
2009,07,25,07,26,17.40
2009,07,25,07,27,17.50
2009,07,25,07,28,17.50
2009,07,25,07,29,17.60
2009,07,25,07,30,17.60
2009,07,25,07,31,17.60
2009,07,25,07,32,17.60
2009,07,25,07,33,17.60
2009,07,25,07,34,17.60
2009,07,25,07,35,17.60
2009,07,25,07,36,17.60
2009,07,25,07,37,17.60
2009,07,25,07,38,17.60
2009,07,25,07,39,17.60
2009,07,25,07,40,17.60
2009,07,25,07,41,17.60
2009,07,25,07,42,17.60
2009,07,25,07,43,17.60
2009,07,25,07,44,17.60
2009,07,25,07,45,17.60
2009,07,25,07,46,17.70
2009,07,25,07,47,17.70
2009,07,25,07,48,17.70
2009,07,25,07,49,17.80
2009,07,25,07,50,17.80
2009,07,25,07,51,17.90
2009,07,25,07,52,17.90
2009,07,25,07,53,17.90
2009,07,25,07,54,17.90
2009,07,25,07,55,17.90
2009,07,25,07,56,17.90
2009,07,25,07,57,17.90
2009,07,25,07,58,17.90
2009,07,25,07,59,17.90
2009,07,25,08,00,17.90
2009,07,25,08,01,17.90
2009,07,25,08,02,17.90
2009,07,25,08,03,17.90
2009,07,25,08,04,17.90
2009,07,25,08,05,17.90
2009,07,25,08,06,17.90
2009,07,25,08,07,18.00
2009,07,25,08,08,18.10
2009,07,25,08,09,18.10
2009,07,25,08,10,18.20
2009,07,25,08,11,18.40
2009,07,25,08,12,18.50
2009,07,25,08,13,18.70
2009,07,25,08,14,18.80
2009,07,25,08,15,19.00
2009,07,25,08,16,19.10
2009,07,25,08,17,19.20
2009,07,25,08,18,19.40
2009,07,25,08,19,19.50
2009,07,25,08,20,19.60
2009,07,25,08,21,19.70
2009,07,25,08,22,19.80
2009,07,25,08,23,19.90
2009,07,25,08,24,19.90
2009,07,25,08,25,20.00
2009,07,25,08,26,20.20
2009,07,25,08,27,20.30
2009,07,25,08,28,20.40
2009,07,25,08,29,20.60
2009,07,25,08,30,20.70
2009,07,25,08,31,20.80
2009,07,25,08,32,20.80
2009,07,25,08,33,20.90
2009,07,25,08,34,20.90
2009,07,25,08,35,21.00
2009,07,25,08,36,21.10
2009,07,25,08,37,21.20
2009,07,25,08,38,21.20
2009,07,25,08,39,21.30
2009,07,25,08,40,21.30
2009,07,25,08,41,21.40
2009,07,25,08,42,21.50
2009,07,25,08,43,21.30
2009,07,25,08,44,21.20
2009,07,25,08,45,21.00
2009,07,25,08,46,20.90
2009,07,25,08,47,20.80
2009,07,25,08,48,20.70
2009,07,25,08,49,20.50
2009,07,25,08,50,20.40
2009,07,25,08,51,20.20
2009,07,25,08,52,20.20
2009,07,25,08,53,20.10
2009,07,25,08,54,20.00
2009,07,25,08,55,19.90
2009,07,25,08,56,19.90
2009,07,25,08,57,19.80
2009,07,25,08,58,19.60
2009,07,25,08,59,19.50
2009,07,25,09,00,19.40
2009,07,25,09,01,19.30
2009,07,25,09,02,19.20
2009,07,25,09,03,19.20
2009,07,25,09,04,19.10
2009,07,25,09,05,19.10
2009,07,25,09,06,19.10
2009,07,25,09,07,19.10
2009,07,25,09,08,19.10
2009,07,25,09,09,19.10
2009,07,25,09,10,19.10
2009,07,25,09,11,19.20
2009,07,25,09,12,19.30
2009,07,25,09,13,19.40
2009,07,25,09,14,19.50
2009,07,25,09,15,19.60
2009,07,25,09,16,19.70
2009,07,25,09,17,19.70
2009,07,25,09,18,19.70
2009,07,25,09,19,19.60
2009,07,25,09,20,19.50
2009,07,25,09,21,19.30
2009,07,25,09,22,19.20
2009,07,25,09,23,19.10
2009,07,25,09,24,18.90
2009,07,25,09,25,18.80
2009,07,25,09,26,18.70
2009,07,25,09,27,18.60
2009,07,25,09,28,18.50
2009,07,25,09,29,18.50
2009,07,25,09,30,18.40
2009,07,25,09,31,18.50
2009,07,25,09,32,18.50
2009,07,25,09,33,18.50
2009,07,25,09,34,18.50
2009,07,25,09,35,18.40
2009,07,25,09,36,18.40
2009,07,25,09,37,18.40
2009,07,25,09,38,18.50
2009,07,25,09,39,18.50
2009,07,25,09,40,18.50
2009,07,25,09,41,18.60
2009,07,25,09,42,18.60
2009,07,25,09,43,18.60
2009,07,25,09,44,18.60
2009,07,25,09,45,18.60
2009,07,25,09,46,18.50
2009,07,25,09,47,18.30
2009,07,25,09,48,18.10
2009,07,25,09,49,17.90
2009,07,25,09,50,17.90
2009,07,25,09,51,17.90
2009,07,25,09,52,17.80
2009,07,25,09,53,17.60
2009,07,25,09,54,17.50
2009,07,25,09,55,17.30
2009,07,25,09,56,17.30
2009,07,25,09,57,17.30
2009,07,25,09,58,17.40
2009,07,25,09,59,17.50
2009,07,25,10,00,17.70
2009,07,25,10,01,17.80
2009,07,25,10,02,17.80
2009,07,25,10,03,17.80
2009,07,25,10,04,17.70
2009,07,25,10,05,17.80
2009,07,25,10,06,17.90
2009,07,25,10,07,18.10
2009,07,25,10,08,18.20
2009,07,25,10,09,18.20
2009,07,25,10,10,18.20
2009,07,25,10,11,18.20
2009,07,25,10,12,18.20
2009,07,25,10,13,18.20
2009,07,25,10,14,18.30
2009,07,25,10,15,18.30
2009,07,25,10,16,18.30
2009,07,25,10,17,18.30
2009,07,25,10,18,18.30
2009,07,25,10,19,18.30
2009,07,25,10,20,18.40
2009,07,25,10,21,18.50
2009,07,25,10,22,18.50
2009,07,25,10,23,18.50
2009,07,25,10,24,18.50
2009,07,25,10,25,18.60
2009,07,25,10,26,18.60
2009,07,25,10,27,18.50
2009,07,25,10,28,18.60
2009,07,25,10,29,18.70
2009,07,25,10,30,18.70
2009,07,25,10,31,18.70
2009,07,25,10,32,18.70
2009,07,25,10,33,18.70
2009,07,25,10,34,18.80
2009,07,25,10,35,18.90
2009,07,25,10,36,18.90
2009,07,25,10,37,19.00
2009,07,25,10,38,19.10
2009,07,25,10,39,19.20
2009,07,25,10,40,19.40
2009,07,25,10,41,19.40
2009,07,25,10,42,19.40
2009,07,25,10,43,19.40
2009,07,25,10,44,19.50
2009,07,25,10,45,19.50
2009,07,25,10,46,19.50
2009,07,25,10,47,19.60
2009,07,25,10,48,19.70
2009,07,25,10,49,19.70
2009,07,25,10,50,19.70
2009,07,25,10,51,19.70
2009,07,25,10,52,19.80
2009,07,25,10,53,20.00
2009,07,25,10,54,20.20
2009,07,25,10,55,20.20
2009,07,25,10,56,20.20
2009,07,25,10,57,20.40
2009,07,25,10,58,20.50
2009,07,25,10,59,20.60
2009,07,25,11,00,20.60
2009,07,25,11,01,20.60
2009,07,25,11,02,20.70
2009,07,25,11,03,20.70
2009,07,25,11,04,20.70
2009,07,25,11,05,20.70
2009,07,25,11,06,20.70
2009,07,25,11,07,20.70
2009,07,25,11,08,20.60
2009,07,25,11,09,20.60
2009,07,25,11,10,20.60
2009,07,25,11,11,20.70
2009,07,25,11,12,20.80
2009,07,25,11,13,20.90
2009,07,25,11,14,21.10
2009,07,25,11,15,21.20
2009,07,25,11,16,21.20
2009,07,25,11,17,21.10
2009,07,25,11,18,21.10
2009,07,25,11,19,21.10
2009,07,25,11,20,21.10
2009,07,25,11,21,21.10
2009,07,25,11,22,21.20
2009,07,25,11,23,21.30
2009,07,25,11,24,21.30
2009,07,25,11,25,21.30
2009,07,25,11,26,21.30
2009,07,25,11,27,21.20
2009,07,25,11,28,21.10
2009,07,25,11,29,20.90
2009,07,25,11,30,20.90
2009,07,25,11,31,21.00
2009,07,25,11,32,21.10
2009,07,25,11,33,21.20
2009,07,25,11,34,21.20
2009,07,25,11,35,21.20
2009,07,25,11,36,21.20
2009,07,25,11,37,21.30
2009,07,25,11,38,21.30
2009,07,25,11,39,21.20
2009,07,25,11,40,21.10
2009,07,25,11,41,21.10
2009,07,25,11,42,21.10
2009,07,25,11,43,21.00
2009,07,25,11,44,21.10
2009,07,25,11,45,21.00
2009,07,25,11,46,20.80
2009,07,25,11,47,20.70
2009,07,25,11,48,20.80
2009,07,25,11,49,20.80
2009,07,25,11,50,20.80
2009,07,25,11,51,20.90
2009,07,25,11,52,20.80
2009,07,25,11,53,20.70
2009,07,25,11,54,20.70
2009,07,25,11,55,20.70
2009,07,25,11,56,20.70
2009,07,25,11,57,20.80
2009,07,25,11,58,20.80
2009,07,25,11,59,21.00
2009,07,25,12,00,21.00
2009,07,25,12,01,21.00
2009,07,25,12,02,20.90
2009,07,25,12,03,21.00
2009,07,25,12,04,21.00
2009,07,25,12,05,21.00
2009,07,25,12,06,21.00
2009,07,25,12,07,21.00
2009,07,25,12,08,21.00
2009,07,25,12,09,21.10
2009,07,25,12,10,21.10
2009,07,25,12,11,21.10
2009,07,25,12,12,21.10
2009,07,25,12,13,21.00
2009,07,25,12,14,21.00
2009,07,25,12,15,21.00
2009,07,25,12,16,20.90
2009,07,25,12,17,20.90
2009,07,25,12,18,21.00
2009,07,25,12,19,20.90
2009,07,25,12,20,20.80
2009,07,25,12,21,20.70
2009,07,25,12,22,20.70
2009,07,25,12,23,20.70
2009,07,25,12,24,20.70
2009,07,25,12,25,20.80
2009,07,25,12,26,20.80
2009,07,25,12,27,20.90
2009,07,25,12,28,21.00
2009,07,25,12,29,21.00
2009,07,25,12,30,21.10
2009,07,25,12,31,21.30
2009,07,25,12,32,21.50
2009,07,25,12,33,21.50
2009,07,25,12,34,21.40
2009,07,25,12,35,21.40
2009,07,25,12,36,21.50
2009,07,25,12,37,21.60
2009,07,25,12,38,21.60
2009,07,25,12,39,21.60
2009,07,25,12,40,21.60
2009,07,25,12,41,21.60
2009,07,25,12,42,21.70
2009,07,25,12,43,21.60
2009,07,25,12,44,21.60
2009,07,25,12,45,21.60
2009,07,25,12,46,21.50
2009,07,25,12,47,21.60
2009,07,25,12,48,21.60
2009,07,25,12,49,21.60
2009,07,25,12,50,21.70
2009,07,25,12,51,21.70
2009,07,25,12,52,21.70
2009,07,25,12,53,21.70
2009,07,25,12,54,21.60
2009,07,25,12,55,21.50
2009,07,25,12,56,21.40
2009,07,25,12,57,21.40
2009,07,25,12,58,21.30
2009,07,25,12,59,21.40
2009,07,25,13,00,21.50
2009,07,25,13,01,21.60
2009,07,25,13,02,21.70
2009,07,25,13,03,21.80
2009,07,25,13,04,21.70
2009,07,25,13,05,21.70
2009,07,25,13,06,21.60
2009,07,25,13,07,21.50
2009,07,25,13,08,21.40
2009,07,25,13,09,21.50
2009,07,25,13,10,21.80
2009,07,25,13,11,22.00
2009,07,25,13,12,22.10
2009,07,25,13,13,22.10
2009,07,25,13,14,22.10
2009,07,25,13,15,22.00
2009,07,25,13,16,22.00
2009,07,25,13,17,22.00
2009,07,25,13,18,22.00
2009,07,25,13,19,22.00
2009,07,25,13,20,22.00
2009,07,25,13,21,21.90
2009,07,25,13,22,21.90
2009,07,25,13,23,21.90
2009,07,25,13,24,22.00
2009,07,25,13,25,22.00
2009,07,25,13,26,22.10
2009,07,25,13,27,22.10
2009,07,25,13,28,22.10
2009,07,25,13,29,22.10
2009,07,25,13,30,22.10
2009,07,25,13,31,22.10
2009,07,25,13,32,22.10
2009,07,25,13,33,22.00
2009,07,25,13,34,22.00
2009,07,25,13,35,21.90
2009,07,25,13,36,21.90
2009,07,25,13,37,22.00
2009,07,25,13,38,22.00
2009,07,25,13,39,22.10
2009,07,25,13,40,22.10
2009,07,25,13,41,22.00
2009,07,25,13,42,22.00
2009,07,25,13,43,22.00
2009,07,25,13,44,22.00
2009,07,25,13,45,22.00
2009,07,25,13,46,22.00
2009,07,25,13,47,22.10
2009,07,25,13,48,22.30
2009,07,25,13,49,22.30
2009,07,25,13,50,22.20
2009,07,25,13,51,22.20
2009,07,25,13,52,22.20
2009,07,25,13,53,22.40
2009,07,25,13,54,22.40
2009,07,25,13,55,22.40
2009,07,25,13,56,22.50
2009,07,25,13,57,22.50
2009,07,25,13,58,22.50
2009,07,25,13,59,22.50
2009,07,25,14,00,22.50
2009,07,25,14,01,22.50
2009,07,25,14,02,22.50
2009,07,25,14,03,22.70
2009,07,25,14,04,22.70
2009,07,25,14,05,22.70
2009,07,25,14,06,22.60
2009,07,25,14,07,22.60
2009,07,25,14,08,22.70
2009,07,25,14,09,22.70
2009,07,25,14,10,22.70
2009,07,25,14,11,22.70
2009,07,25,14,12,22.70
2009,07,25,14,13,22.60
2009,07,25,14,14,22.50
2009,07,25,14,15,22.50
2009,07,25,14,16,22.60
2009,07,25,14,17,22.60
2009,07,25,14,18,22.50
2009,07,25,14,19,22.50
2009,07,25,14,20,22.30
2009,07,25,14,21,22.20
2009,07,25,14,22,22.20
2009,07,25,14,23,22.30
2009,07,25,14,24,22.40
2009,07,25,14,25,22.40
2009,07,25,14,26,22.50
2009,07,25,14,27,22.50
2009,07,25,14,28,22.50
2009,07,25,14,29,22.60
2009,07,25,14,30,22.70
2009,07,25,14,31,22.70
2009,07,25,14,32,22.70
2009,07,25,14,33,22.70
2009,07,25,14,34,22.90
2009,07,25,14,35,22.90
2009,07,25,14,36,22.90
2009,07,25,14,37,22.80
2009,07,25,14,38,22.70
2009,07,25,14,39,22.80
2009,07,25,14,40,22.90
2009,07,25,14,41,23.10
2009,07,25,14,42,23.20
2009,07,25,14,43,23.30
2009,07,25,14,44,23.30
2009,07,25,14,45,23.30
2009,07,25,14,46,23.30
2009,07,25,14,47,23.20
2009,07,25,14,48,23.20
2009,07,25,14,49,23.10
2009,07,25,14,50,23.10
2009,07,25,14,51,23.10
2009,07,25,14,52,23.20
2009,07,25,14,53,23.30
2009,07,25,14,54,23.30
2009,07,25,14,55,23.20
2009,07,25,14,56,23.20
2009,07,25,14,57,23.20
2009,07,25,14,58,23.20
2009,07,25,14,59,23.30
2009,07,25,15,00,23.30
2009,07,25,15,01,23.30
2009,07,25,15,02,23.30
2009,07,25,15,03,23.40
2009,07,25,15,04,23.40
2009,07,25,15,05,23.40
2009,07,25,15,06,23.30
2009,07,25,15,07,23.30
2009,07,25,15,08,23.30
2009,07,25,15,09,23.20
2009,07,25,15,10,23.30
2009,07,25,15,11,23.30
2009,07,25,15,12,23.50
2009,07,25,15,13,23.50
2009,07,25,15,14,23.40
2009,07,25,15,15,23.40
2009,07,25,15,16,23.30
2009,07,25,15,17,23.40
2009,07,25,15,18,23.50
2009,07,25,15,19,23.60
2009,07,25,15,20,23.60
2009,07,25,15,21,23.60
2009,07,25,15,22,23.50
2009,07,25,15,23,23.40
2009,07,25,15,24,23.30
2009,07,25,15,25,23.30
2009,07,25,15,26,23.30
2009,07,25,15,27,23.20
2009,07,25,15,28,23.10
2009,07,25,15,29,23.10
2009,07,25,15,30,23.10
2009,07,25,15,31,23.20
2009,07,25,15,32,23.20
2009,07,25,15,33,23.20
2009,07,25,15,34,23.30
2009,07,25,15,35,23.30
2009,07,25,15,36,23.30
2009,07,25,15,37,23.40
2009,07,25,15,38,23.40
2009,07,25,15,39,23.60
2009,07,25,15,40,23.60
2009,07,25,15,41,23.60
2009,07,25,15,42,23.60
2009,07,25,15,43,23.60
2009,07,25,15,44,23.60
2009,07,25,15,45,23.70
2009,07,25,15,46,23.70
2009,07,25,15,47,23.90
2009,07,25,15,48,24.10
2009,07,25,15,49,24.10
2009,07,25,15,50,24.20
2009,07,25,15,51,24.30
2009,07,25,15,52,24.40
2009,07,25,15,53,24.50
2009,07,25,15,54,24.50
2009,07,25,15,55,24.60
2009,07,25,15,56,24.70
2009,07,25,15,57,24.70
2009,07,25,15,58,24.70
2009,07,25,15,59,24.80
2009,07,25,16,00,24.90
2009,07,25,16,01,25.00
2009,07,25,16,02,25.10
2009,07,25,16,03,25.10
2009,07,25,16,04,25.20
2009,07,25,16,05,25.30
2009,07,25,16,06,25.40
2009,07,25,16,07,25.40
2009,07,25,16,08,25.40
2009,07,25,16,09,25.30
2009,07,25,16,10,25.30
2009,07,25,16,11,25.30
2009,07,25,16,12,25.30
2009,07,25,16,13,25.30
2009,07,25,16,14,25.40
2009,07,25,16,15,25.40
2009,07,25,16,16,25.40
2009,07,25,16,17,25.40
2009,07,25,16,18,25.50
2009,07,25,16,19,25.60
2009,07,25,16,20,25.60
2009,07,25,16,21,25.60
2009,07,25,16,22,25.60
2009,07,25,16,23,25.60
2009,07,25,16,24,25.50
2009,07,25,16,25,25.40
2009,07,25,16,26,25.30
2009,07,25,16,27,25.20
2009,07,25,16,28,25.20
2009,07,25,16,29,25.10
2009,07,25,16,30,25.00
2009,07,25,16,31,25.00
2009,07,25,16,32,24.90
2009,07,25,16,33,24.90
2009,07,25,16,34,24.80
2009,07,25,16,35,24.80
2009,07,25,16,36,24.80
2009,07,25,16,37,24.80
2009,07,25,16,38,24.70
2009,07,25,16,39,24.70
2009,07,25,16,40,24.70
2009,07,25,16,41,24.70
2009,07,25,16,42,24.70
2009,07,25,16,43,24.70
2009,07,25,16,44,24.70
2009,07,25,16,45,24.70
2009,07,25,16,46,24.60
2009,07,25,16,47,24.50
2009,07,25,16,48,24.50
2009,07,25,16,49,24.50
2009,07,25,16,50,24.40
2009,07,25,16,51,24.40
2009,07,25,16,52,24.40
2009,07,25,16,53,24.30
2009,07,25,16,54,24.30
2009,07,25,16,55,24.30
2009,07,25,16,56,24.30
2009,07,25,16,57,24.30
2009,07,25,16,58,24.30
2009,07,25,16,59,24.30
2009,07,25,17,00,24.40
2009,07,25,17,01,24.50
2009,07,25,17,02,24.60
2009,07,25,17,03,24.80
2009,07,25,17,04,24.90
2009,07,25,17,05,25.00
2009,07,25,17,06,25.20
2009,07,25,17,07,25.20
2009,07,25,17,08,25.30
2009,07,25,17,09,25.30
2009,07,25,17,10,25.20
2009,07,25,17,11,25.20
2009,07,25,17,12,25.10
2009,07,25,17,13,25.00
2009,07,25,17,14,25.00
2009,07,25,17,15,24.90
2009,07,25,17,16,24.90
2009,07,25,17,17,24.90
2009,07,25,17,18,24.90
2009,07,25,17,19,24.90